�������C�����ː����j�^�v���󋵏��
Date,Time,Cs137(Bq/L),Cs134(Bq/L),�S��(Bq/L)
2017/03/14,00:00,0.44,ND,10
2017/03/14,00:10,0.44,ND,9.5
2017/03/14,00:20,0.46,ND,11
2017/03/14,00:30,0.44,ND,11
2017/03/14,00:40,0.46,ND,13
2017/03/14,00:50,0.37,ND,9.7
2017/03/14,01:00,0.37,ND,9.2
2017/03/14,01:10,0.44,ND,9.7
2017/03/14,01:20,0.34,ND,9.0
2017/03/14,01:30,0.42,ND,9.2
2017/03/14,01:40,0.41,ND,9.7
2017/03/14,01:50,0.41,ND,11
2017/03/14,02:00,0.32,ND,15
2017/03/14,02:10,0.33,ND,15
2017/03/14,02:20,0.35,ND,15
2017/03/14,02:30,0.35,ND,14
2017/03/14,02:40,0.33,ND,12
2017/03/14,02:50,0.32,ND,8.9
2017/03/14,03:00,0.33,ND,ND
2017/03/14,03:10,0.40,ND,ND
2017/03/14,03:20,0.40,ND,ND
2017/03/14,03:30,0.40,ND,ND
2017/03/14,03:40,0.42,ND,ND
2017/03/14,03:50,0.42,ND,ND
2017/03/14,04:00,0.41,ND,ND
2017/03/14,04:10,0.38,ND,9.7
2017/03/14,04:20,0.37,ND,12
2017/03/14,04:30,0.30,ND,13
2017/03/14,04:40,0.28,ND,10
2017/03/14,04:50,0.24,0.026,11
2017/03/14,05:00,0.24,0.035,11
2017/03/14,05:10,0.26,0.025,10
2017/03/14,05:20,0.27,0.026,ND
2017/03/14,05:30,0.32,ND,ND
2017/03/14,05:40,0.32,ND,10
2017/03/14,05:50,0.35,ND,9.7
2017/03/14,06:00,0.36,ND,12
2017/03/14,06:10,0.38,ND,12
2017/03/14,06:20,0.38,ND,13
2017/03/14,06:30,0.46,ND,12
2017/03/14,06:40,0.38,ND,11
2017/03/14,06:50,0.46,ND,11
2017/03/14,07:00,0.47,ND,11
2017/03/14,07:10,0.48,ND,12
2017/03/14,07:20,0.49,ND,11
2017/03/14,07:30,0.50,ND,13
2017/03/14,07:40,0.49,ND,14
2017/03/14,07:50,0.50,ND,15
2017/03/14,08:00,0.51,ND,14
2017/03/14,08:10,0.48,ND,13
2017/03/14,08:20,0.47,ND,13
2017/03/14,08:30,0.47,ND,13
2017/03/14,08:40,0.47,ND,12
2017/03/14,08:50,0.47,ND,10
2017/03/14,09:00,0.47,ND,ND
2017/03/14,09:10,0.48,ND,ND
2017/03/14,09:20,0.48,ND,ND
2017/03/14,09:30,0.48,ND,ND
2017/03/14,09:40,0.38,ND,ND
2017/03/14,09:50,0.45,ND,ND
2017/03/14,10:00,0.44,ND,ND
2017/03/14,10:10,0.33,ND,ND
2017/03/14,10:20,0.41,ND,ND
2017/03/14,10:30,0.40,ND,ND
2017/03/14,10:40,0.40,ND,ND
2017/03/14,10:50,0.43,ND,ND
2017/03/14,11:00,0.43,ND,ND
2017/03/14,11:10,0.43,ND,ND
2017/03/14,11:20,0.42,ND,ND
2017/03/14,11:30,0.41,ND,ND
2017/03/14,11:40,0.40,ND,ND
2017/03/14,11:50,0.36,ND,12
2017/03/14,12:00,0.35,ND,12
2017/03/14,12:10,0.35,ND,13
2017/03/14,12:20,0.35,ND,12
2017/03/14,12:30,0.36,ND,12
2017/03/14,12:40,0.38,ND,11
2017/03/14,12:50,0.40,ND,12
2017/03/14,13:00,0.39,ND,14
2017/03/14,13:10,0.41,ND,13
2017/03/14,13:20,0.41,ND,15
2017/03/14,13:30,0.40,ND,14
2017/03/14,13:40,0.39,ND,14
2017/03/14,13:50,0.39,ND,12
2017/03/14,14:00,0.39,ND,9.9
2017/03/14,14:10,0.30,ND,11
2017/03/14,14:20,0.38,ND,9.0
2017/03/14,14:30,0.38,ND,10
2017/03/14,14:40,0.37,ND,9.5
2017/03/14,14:50,0.38,ND,8.9
2017/03/14,15:00,0.38,ND,11
2017/03/14,15:10,0.40,ND,ND
2017/03/14,15:20,0.39,ND,9.0
2017/03/14,15:30,0.38,ND,9.7
2017/03/14,15:40,0.40,ND,10
2017/03/14,15:50,0.39,ND,12
2017/03/14,16:00,0.39,ND,10
2017/03/14,16:10,0.39,ND,12
2017/03/14,16:20,0.39,ND,12
2017/03/14,16:30,0.31,ND,10
2017/03/14,16:40,0.28,0.029,11
2017/03/14,16:50,0.29,0.030,9.2
2017/03/14,17:00,0.30,0.027,11
2017/03/14,17:10,0.26,0.037,13
2017/03/14,17:20,0.30,0.027,12
2017/03/14,17:30,0.32,0.026,16
2017/03/14,17:40,0.45,ND,14
2017/03/14,17:50,0.46,ND,11
2017/03/14,18:00,0.48,ND,10
2017/03/14,18:10,0.51,ND,9.5
2017/03/14,18:20,0.51,ND,11
2017/03/14,18:30,0.52,ND,ND
2017/03/14,18:40,0.53,ND,10
2017/03/14,18:50,0.52,ND,14
2017/03/14,19:00,0.53,ND,12
2017/03/14,19:10,0.52,ND,11
2017/03/14,19:20,0.52,ND,9.3
2017/03/14,19:30,0.51,ND,9.3
2017/03/14,19:40,0.51,ND,8.8
2017/03/14,19:50,0.53,ND,8.8
2017/03/14,20:00,0.53,ND,10
2017/03/14,20:10,0.52,ND,11
2017/03/14,20:20,0.53,ND,9.7
2017/03/14,20:30,0.54,ND,10
2017/03/14,20:40,0.54,ND,11
2017/03/14,20:50,0.53,ND,8.8
2017/03/14,21:00,0.54,ND,ND
2017/03/14,21:10,0.55,ND,ND
2017/03/14,21:20,0.54,ND,ND
2017/03/14,21:30,0.55,ND,ND
2017/03/14,21:40,0.41,0.037,ND
2017/03/14,21:50,0.42,0.044,ND
2017/03/14,22:00,0.40,0.050,ND
2017/03/14,22:10,0.59,ND,ND
2017/03/14,22:20,0.57,0.026,ND
2017/03/14,22:30,0.60,ND,ND
2017/03/14,22:40,0.61,ND,ND
2017/03/14,22:50,0.60,ND,8.9
2017/03/14,23:00,0.63,ND,ND
2017/03/14,23:10,0.47,0.048,ND
2017/03/14,23:20,0.65,ND,10
2017/03/14,23:30,0.64,ND,ND
2017/03/14,23:40,0.50,0.034,11
2017/03/14,23:50,0.48,0.042,9.0
